Time,TemperatureF,DewpointF,PressureIn,WindDirection,WindDirectionDegrees,WindSpeedMPH,WindSpeedGustMPH,Humidity,HourlyPrecipIn,Conditions,Clouds,dailyrainin,SoftwareType,DateUTC
2013-03-23 00:00:00,33.0,29.6,29.98,NE,51,3.0,6.0,87,0.00,RA,,0.00,WeatherDisplay:10.37,2013-03-23 05:00:00,
2013-03-23 00:05:00,33.0,29.3,29.98,NE,52,2.0,6.0,86,0.00,RA,,0.00,WeatherDisplay:10.37,2013-03-23 05:05:00,
2013-03-23 00:10:00,33.0,29.3,29.98,NE,43,6.0,12.0,86,0.00,RA,,0.00,WeatherDisplay:10.37,2013-03-23 05:10:00,
2013-03-23 00:15:00,32.8,29.3,29.99,NE,40,6.0,12.0,87,0.00,OVC,,0.00,WeatherDisplay:10.37,2013-03-23 05:15:00,
2013-03-23 00:25:00,32.8,29.3,29.99,NE,44,5.0,10.0,87,0.00,OVC,,0.00,WeatherDisplay:10.37,2013-03-23 05:25:00,
2013-03-23 00:30:00,32.8,29.4,29.99,NE,44,1.0,7.0,87,0.00,OVC,,0.00,WeatherDisplay:10.37,2013-03-23 05:30:00,
2013-03-23 00:40:00,32.8,29.4,29.99,NE,37,5.0,7.0,87,0.00,OVC,,0.00,WeatherDisplay:10.37,2013-03-23 05:40:00,
2013-03-23 00:45:00,32.8,29.3,29.99,NE,41,3.0,8.0,87,0.00,OVC,,0.00,WeatherDisplay:10.37,2013-03-23 05:45:00,
2013-03-23 00:50:00,32.7,29.2,29.98,NE,43,3.0,10.0,87,0.00,OVC,,0.00,WeatherDisplay:10.37,2013-03-23 05:50:00,
2013-03-23 00:55:00,32.8,29.4,29.98,NE,43,3.0,7.0,87,0.00,OVC,,0.00,WeatherDisplay:10.37,2013-03-23 05:55:00,
2013-03-23 01:00:00,32.6,29.4,29.98,NE,44,3.0,10.0,88,0.00,OVC,,0.00,WeatherDisplay:10.37,2013-03-23 06:00:00,
2013-03-23 01:05:00,32.6,29.4,29.99,NE,55,3.0,10.0,88,0.00,OVC,,0.00,WeatherDisplay:10.37,2013-03-23 06:05:00,
2013-03-23 01:10:00,32.6,29.4,29.98,ENE,63,2.0,8.0,88,0.00,OVC,,0.00,WeatherDisplay:10.37,2013-03-23 06:10:00,
2013-03-23 01:15:00,32.6,29.4,29.98,ENE,59,5.0,9.0,88,0.00,OVC,,0.00,WeatherDisplay:10.37,2013-03-23 06:15:00,
2013-03-23 01:20:00,32.6,29.4,29.98,NE,54,3.0,9.0,88,0.00,OVC,,0.00,WeatherDisplay:10.37,2013-03-23 06:20:00,
2013-03-23 01:30:00,32.5,29.3,29.98,NE,52,3.0,7.0,88,0.00,OVC,,0.00,WeatherDisplay:10.37,2013-03-23 06:30:00,
2013-03-23 01:40:00,32.5,29.3,29.98,NE,40,3.0,7.0,88,0.00,OVC,,0.00,WeatherDisplay:10.37,2013-03-23 06:40:00,
2013-03-23 01:45:00,32.5,29.3,29.98,NE,37,5.0,10.0,88,0.00,OVC,,0.00,WeatherDisplay:10.37,2013-03-23 06:45:00,
2013-03-23 01:50:00,32.5,29.6,29.98,NNE,33,3.0,8.0,89,0.00,OVC,,0.00,WeatherDisplay:10.37,2013-03-23 06:50:00,
2013-03-23 02:00:00,32.5,29.6,29.97,NE,42,2.0,9.0,89,0.00,OVC,,0.00,WeatherDisplay:10.37,2013-03-23 07:00:00,
2013-03-23 02:10:00,32.5,29.6,29.97,NE,42,3.0,9.0,89,0.00,OVC,,0.00,WeatherDisplay:10.37,2013-03-23 07:10:00,
2013-03-23 02:20:00,32.3,29.7,29.97,NE,43,7.0,9.0,90,0.00,OVC,,0.00,WeatherDisplay:10.37,2013-03-23 07:20:00,
2013-03-23 02:30:00,32.3,29.7,29.97,NE,41,5.0,10.0,90,0.00,OVC,,0.00,WeatherDisplay:10.37,2013-03-23 07:30:00,
2013-03-23 02:40:00,32.2,29.6,29.97,NE,41,2.0,8.0,90,0.00,OVC,,0.00,WeatherDisplay:10.37,2013-03-23 07:40:00,
2013-03-23 02:45:00,32.2,29.6,29.96,NE,47,3.0,7.0,90,0.00,OVC,,0.00,WeatherDisplay:10.37,2013-03-23 07:45:00,
2013-03-23 02:55:00,32.3,29.7,29.97,NE,47,5.0,6.0,90,0.00,OVC,,0.00,WeatherDisplay:10.37,2013-03-23 07:55:00,
2013-03-23 03:00:00,32.2,29.3,29.97,NE,41,6.0,9.0,89,0.00,OVC,,0.00,WeatherDisplay:10.37,2013-03-23 08:00:00,
2013-03-23 03:05:00,32.2,29.6,29.97,NE,42,3.0,8.0,90,0.00,OVC,,0.00,WeatherDisplay:10.37,2013-03-23 08:05:00,
2013-03-23 03:15:00,32.3,29.7,29.97,NE,39,3.0,6.0,90,0.00,OVC,,0.00,WeatherDisplay:10.37,2013-03-23 08:15:00,
2013-03-23 03:20:00,32.3,29.4,29.97,NE,40,5.0,9.0,89,0.00,OVC,,0.00,WeatherDisplay:10.37,2013-03-23 08:20:00,
2013-03-23 03:25:00,32.3,29.4,29.97,NE,44,5.0,8.0,89,0.00,OVC,,0.00,WeatherDisplay:10.37,2013-03-23 08:25:00,
2013-03-23 03:35:00,32.3,29.4,29.96,NE,41,7.0,9.0,89,0.00,OVC,,0.00,WeatherDisplay:10.37,2013-03-23 08:35:00,
2013-03-23 03:40:00,32.3,29.1,29.96,NE,34,2.0,10.0,88,0.00,OVC,,0.00,WeatherDisplay:10.37,2013-03-23 08:40:00,
2013-03-23 03:50:00,32.3,29.1,29.96,ENE,57,2.0,6.0,88,0.00,OVC,,0.00,WeatherDisplay:10.37,2013-03-23 08:50:00,
2013-03-23 04:00:00,32.5,29.3,29.96,NE,40,3.0,8.0,88,0.00,OVC,,0.00,WeatherDisplay:10.37,2013-03-23 09:00:00,
2013-03-23 04:05:00,32.5,29.3,29.96,NE,45,3.0,6.0,88,0.00,OVC,,0.00,WeatherDisplay:10.37,2013-03-23 09:05:00,
2013-03-23 04:10:00,32.5,29.3,29.96,NE,51,5.0,7.0,88,0.00,OVC,,0.00,WeatherDisplay:10.37,2013-03-23 09:10:00,
2013-03-23 04:15:00,32.6,29.4,29.96,NE,50,6.0,10.0,88,0.00,OVC,,0.00,WeatherDisplay:10.37,2013-03-23 09:15:00,
2013-03-23 04:20:00,32.6,29.4,29.96,NE,50,3.0,7.0,88,0.00,OVC,,0.00,WeatherDisplay:10.37,2013-03-23 09:20:00,
2013-03-23 04:25:00,32.6,29.4,29.96,NE,49,1.0,5.0,88,0.00,OVC,,0.00,WeatherDisplay:10.37,2013-03-23 09:25:00,
2013-03-23 04:30:00,32.6,29.4,29.96,NE,50,1.0,4.0,88,0.00,OVC,,0.00,WeatherDisplay:10.37,2013-03-23 09:30:00,
2013-03-23 04:35:00,32.6,29.4,29.97,NE,51,3.0,6.0,88,0.00,OVC,,0.00,WeatherDisplay:10.37,2013-03-23 09:35:00,
2013-03-23 04:40:00,32.6,29.2,29.96,NE,46,2.0,6.0,87,0.00,OVC,,0.00,WeatherDisplay:10.37,2013-03-23 09:40:00,
2013-03-23 04:50:00,32.8,29.6,29.96,NE,40,1.0,6.0,88,0.00,OVC,,0.00,WeatherDisplay:10.37,2013-03-23 09:50:00,
2013-03-23 04:55:00,32.7,29.3,29.96,NE,39,1.0,6.0,87,0.00,OVC,,0.00,WeatherDisplay:10.37,2013-03-23 09:55:00,
2013-03-23 05:05:00,32.8,29.6,29.96,NE,37,2.0,5.0,88,0.00,OVC,,0.00,WeatherDisplay:10.37,2013-03-23 10:05:00,
2013-03-23 05:10:00,32.8,29.3,29.96,NE,36,2.0,7.0,87,0.00,OVC,,0.00,WeatherDisplay:10.37,2013-03-23 10:10:00,
2013-03-23 05:15:00,32.8,29.3,29.96,NE,36,3.0,7.0,87,0.00,OVC,,0.00,WeatherDisplay:10.37,2013-03-23 10:15:00,
2013-03-23 05:20:00,33.0,29.6,29.96,NE,36,1.0,5.0,87,0.00,OVC,,0.00,WeatherDisplay:10.37,2013-03-23 10:20:00,
2013-03-23 05:30:00,33.0,29.6,29.96,NE,45,1.0,5.0,87,0.00,OVC,,0.00,WeatherDisplay:10.37,2013-03-23 10:30:00,
2013-03-23 05:35:00,33.0,29.6,29.96,NNE,32,3.0,6.0,87,0.00,OVC,,0.00,WeatherDisplay:10.37,2013-03-23 10:35:00,
2013-03-23 05:40:00,33.0,29.5,29.97,NNE,32,2.0,7.0,87,0.00,OVC,,0.00,WeatherDisplay:10.37,2013-03-23 10:40:00,
2013-03-23 05:50:00,33.0,29.3,29.97,NE,54,3.0,8.0,86,0.00,OVC,,0.00,WeatherDisplay:10.37,2013-03-23 10:50:00,
2013-03-23 05:55:00,33.0,29.0,29.98,NE,44,1.0,8.0,85,0.00,OVC,,0.00,WeatherDisplay:10.37,2013-03-23 10:55:00,
2013-03-23 06:00:00,33.0,29.0,29.97,NE,45,5.0,8.0,85,0.00,OVC,,0.00,WeatherDisplay:10.37,2013-03-23 11:00:00,
2013-03-23 06:10:00,33.0,29.0,29.98,NE,54,2.0,9.0,85,0.00,OVC,,0.00,WeatherDisplay:10.37,2013-03-23 11:10:00,
2013-03-23 06:20:00,33.0,29.0,29.97,NE,39,2.0,8.0,85,0.00,OVC,,0.00,WeatherDisplay:10.37,2013-03-23 11:20:00,
2013-03-23 06:25:00,33.0,29.0,29.97,NNE,28,5.0,8.0,85,0.00,OVC,,0.00,WeatherDisplay:10.37,2013-03-23 11:25:00,
2013-03-23 06:30:00,33.0,28.7,29.97,NNE,31,2.0,11.0,84,0.00,OVC,,0.00,WeatherDisplay:10.37,2013-03-23 11:30:00,
2013-03-23 06:40:00,33.0,29.0,29.97,NNE,27,5.0,9.0,85,0.00,OVC,,0.00,WeatherDisplay:10.37,2013-03-23 11:40:00,
2013-03-23 06:50:00,32.8,28.8,29.96,NE,37,5.0,12.0,85,0.00,OVC,,0.00,WeatherDisplay:10.37,2013-03-23 11:50:00,
2013-03-23 06:55:00,32.8,28.8,29.96,NE,34,5.0,9.0,85,0.00,OVC,,0.00,WeatherDisplay:10.37,2013-03-23 11:55:00,
2013-03-23 07:05:00,32.8,28.8,29.97,NE,34,3.0,9.0,85,0.00,OVC,,0.00,WeatherDisplay:10.37,2013-03-23 12:05:00,
2013-03-23 07:10:00,32.8,28.8,29.97,NE,40,3.0,9.0,85,0.00,OVC,,0.00,WeatherDisplay:10.37,2013-03-23 12:10:00,
2013-03-23 07:15:00,32.8,28.8,29.97,NE,44,5.0,8.0,85,0.00,OVC,,0.00,WeatherDisplay:10.37,2013-03-23 12:15:00,
2013-03-23 07:25:00,33.0,29.0,29.98,NE,44,2.0,7.0,85,0.00,OVC,,0.00,WeatherDisplay:10.37,2013-03-23 12:25:00,
2013-03-23 07:30:00,33.0,29.0,29.98,NE,44,2.0,7.0,85,0.00,OVC,,0.00,WeatherDisplay:10.37,2013-03-23 12:30:00,
2013-03-23 07:35:00,33.0,29.0,29.98,NNE,33,5.0,9.0,85,0.00,OVC,,0.00,WeatherDisplay:10.37,2013-03-23 12:35:00,
2013-03-23 07:40:00,33.0,29.0,29.98,NNE,29,3.0,8.0,85,0.00,OVC,,0.00,WeatherDisplay:10.37,2013-03-23 12:40:00,
2013-03-23 07:50:00,33.1,29.1,29.98,NE,34,5.0,9.0,85,0.00,OVC,,0.00,WeatherDisplay:10.37,2013-03-23 12:50:00,
2013-03-23 07:55:00,33.1,29.1,29.98,NNE,31,2.0,10.0,85,0.00,OVC,,0.00,WeatherDisplay:10.37,2013-03-23 12:55:00,
2013-03-23 08:05:00,33.3,29.3,29.98,NE,45,5.0,10.0,85,0.00,OVC,,0.00,WeatherDisplay:10.37,2013-03-23 13:05:00,
2013-03-23 08:10:00,33.3,29.3,29.98,NE,38,3.0,7.0,85,0.00,OVC,,0.00,WeatherDisplay:10.37,2013-03-23 13:10:00,
2013-03-23 08:15:00,33.4,29.4,29.98,NNE,32,6.0,8.0,85,0.00,OVC,,0.00,WeatherDisplay:10.37,2013-03-23 13:15:00,
2013-03-23 08:20:00,33.4,29.4,29.97,NE,39,5.0,10.0,85,0.00,OVC,,0.00,WeatherDisplay:10.37,2013-03-23 13:20:00,
2013-03-23 08:25:00,33.6,29.6,29.98,NE,42,3.0,9.0,85,0.00,OVC,,0.00,WeatherDisplay:10.37,2013-03-23 13:25:00,
2013-03-23 08:30:00,33.6,29.6,29.98,NE,44,2.0,6.0,85,0.00,OVC,,0.00,WeatherDisplay:10.37,2013-03-23 13:30:00,
2013-03-23 08:35:00,33.7,29.7,29.98,NE,42,3.0,9.0,85,0.00,OVC,,0.00,WeatherDisplay:10.37,2013-03-23 13:35:00,
2013-03-23 08:40:00,33.7,29.4,29.98,NE,44,5.0,13.0,84,0.00,OVC,,0.00,WeatherDisplay:10.37,2013-03-23 13:40:00,
2013-03-23 08:45:00,33.8,29.5,29.98,NE,42,5.0,12.0,84,0.00,OVC,,0.00,WeatherDisplay:10.37,2013-03-23 13:45:00,
2013-03-23 08:50:00,33.9,29.5,29.98,NE,42,6.0,12.0,84,0.00,OVC,,0.00,WeatherDisplay:10.37,2013-03-23 13:50:00,
2013-03-23 08:55:00,33.8,29.5,29.98,NE,43,7.0,12.0,84,0.00,OVC,,0.00,WeatherDisplay:10.37,2013-03-23 13:55:00,
2013-03-23 09:05:00,34.0,29.7,30.00,NE,50,2.0,9.0,84,0.00,OVC,,0.00,WeatherDisplay:10.37,2013-03-23 14:05:00,
2013-03-23 09:10:00,34.1,29.8,30.00,NE,50,5.0,12.0,84,0.00,OVC,,0.00,WeatherDisplay:10.37,2013-03-23 14:10:00,
2013-03-23 09:20:00,34.2,29.5,30.00,NE,41,3.0,9.0,83,0.00,OVC,,0.00,WeatherDisplay:10.37,2013-03-23 14:20:00,
2013-03-23 09:30:00,34.4,29.8,30.00,NE,45,3.0,8.0,83,0.00,OVC,,0.00,WeatherDisplay:10.37,2013-03-23 14:30:00,
2013-03-23 09:40:00,34.4,29.8,30.00,NE,40,3.0,10.0,83,0.00,OVC,,0.00,WeatherDisplay:10.37,2013-03-23 14:40:00,
2013-03-23 09:45:00,34.6,30.0,29.99,NE,41,5.0,10.0,83,0.00,OVC,,0.00,WeatherDisplay:10.37,2013-03-23 14:45:00,
2013-03-23 09:50:00,34.7,29.8,29.99,NNE,33,7.0,10.0,82,0.00,OVC,,0.00,WeatherDisplay:10.37,2013-03-23 14:50:00,
2013-03-23 10:00:00,34.9,30.0,29.99,NE,36,8.0,13.0,82,0.00,OVC,,0.00,WeatherDisplay:10.37,2013-03-23 15:00:00,
2013-03-23 10:10:00,35.1,29.9,29.99,NE,38,2.0,10.0,81,0.00,OVC,,0.00,WeatherDisplay:10.37,2013-03-23 15:10:00,
2013-03-23 10:20:00,35.3,30.1,29.99,NE,40,3.0,9.0,81,0.00,OVC,,0.00,WeatherDisplay:10.37,2013-03-23 15:20:00,
2013-03-23 10:25:00,35.4,30.1,30.00,NE,35,3.0,12.0,81,0.00,OVC,,0.00,WeatherDisplay:10.37,2013-03-23 15:25:00,
2013-03-23 10:30:00,35.6,30.3,30.00,NE,36,5.0,8.0,81,0.00,OVC,,0.00,WeatherDisplay:10.37,2013-03-23 15:30:00,
2013-03-23 10:40:00,35.6,30.3,30.00,NE,40,5.0,8.0,81,0.00,OVC,,0.00,WeatherDisplay:10.37,2013-03-23 15:40:00,
2013-03-23 10:45:00,35.6,30.3,30.00,NE,49,3.0,10.0,81,0.00,OVC,,0.00,WeatherDisplay:10.37,2013-03-23 15:45:00,
2013-03-23 10:50:00,35.7,30.1,30.00,NE,47,6.0,12.0,80,0.00,OVC,,0.00,WeatherDisplay:10.37,2013-03-23 15:50:00,
2013-03-23 11:00:00,35.9,30.3,30.00,NE,39,2.0,8.0,80,0.00,OVC,,0.00,WeatherDisplay:10.37,2013-03-23 16:00:00,
2013-03-23 11:05:00,36.0,30.4,30.01,NNE,27,2.0,7.0,80,0.00,OVC,,0.00,WeatherDisplay:10.37,2013-03-23 16:05:00,
2013-03-23 11:10:00,36.0,30.4,30.00,NNE,26,3.0,12.0,80,0.01,RA,,0.01,WeatherDisplay:10.37,2013-03-23 16:10:00,
2013-03-23 11:20:00,36.0,30.1,30.02,NNE,30,5.0,9.0,79,0.00,OVC,,0.01,WeatherDisplay:10.37,2013-03-23 16:20:00,
2013-03-23 11:25:00,36.0,29.8,30.01,NNE,25,5.0,7.0,78,0.00,OVC,,0.01,WeatherDisplay:10.37,2013-03-23 16:25:00,
2013-03-23 11:30:00,36.0,29.8,30.01,NNE,28,6.0,9.0,78,0.00,OVC,,0.01,WeatherDisplay:10.37,2013-03-23 16:30:00,
2013-03-23 11:40:00,36.0,29.8,30.01,NNE,27,5.0,12.0,78,0.00,OVC,,0.01,WeatherDisplay:10.37,2013-03-23 16:40:00,
2013-03-23 11:45:00,36.0,29.8,30.01,NNE,26,6.0,12.0,78,0.00,OVC,,0.01,WeatherDisplay:10.37,2013-03-23 16:45:00,
2013-03-23 11:50:00,35.9,29.4,30.00,NE,35,5.0,8.0,77,0.00,OVC,,0.01,WeatherDisplay:10.37,2013-03-23 16:50:00,
2013-03-23 11:55:00,35.9,29.7,30.01,NE,40,2.0,8.0,78,0.00,OVC,,0.01,WeatherDisplay:10.37,2013-03-23 16:55:00,
2013-03-23 12:05:00,36.0,29.5,30.00,NNE,28,5.0,9.0,77,0.00,OVC,,0.01,WeatherDisplay:10.37,2013-03-23 17:05:00,
2013-03-23 12:10:00,35.9,29.1,30.00,NNE,27,6.0,10.0,76,0.00,OVC,,0.01,WeatherDisplay:10.37,2013-03-23 17:10:00,
2013-03-23 12:15:00,36.0,29.2,29.99,NE,34,6.0,12.0,76,0.00,OVC,,0.01,WeatherDisplay:10.37,2013-03-23 17:15:00,
2013-03-23 12:20:00,36.0,29.2,29.98,NE,37,7.0,12.0,76,0.00,OVC,,0.01,WeatherDisplay:10.37,2013-03-23 17:20:00,
2013-03-23 12:30:00,36.0,28.8,29.98,NNE,30,6.0,12.0,75,0.00,OVC,,0.01,WeatherDisplay:10.37,2013-03-23 17:30:00,
2013-03-23 12:35:00,36.0,28.8,29.97,NNE,29,5.0,13.0,75,0.00,OVC,,0.01,WeatherDisplay:10.37,2013-03-23 17:35:00,
2013-03-23 12:40:00,36.0,28.5,29.97,NE,34,9.0,16.0,74,0.00,OVC,,0.01,WeatherDisplay:10.37,2013-03-23 17:40:00,
2013-03-23 12:45:00,36.0,28.5,29.95,NE,39,7.0,16.0,74,0.00,OVC,,0.01,WeatherDisplay:10.37,2013-03-23 17:45:00,
2013-03-23 12:50:00,36.0,28.5,29.95,NE,40,7.0,13.0,74,0.00,OVC,,0.01,WeatherDisplay:10.37,2013-03-23 17:50:00,
2013-03-23 12:55:00,36.1,28.3,29.95,NE,44,6.0,15.0,73,0.00,OVC,,0.01,WeatherDisplay:10.37,2013-03-23 17:55:00,
2013-03-23 13:00:00,36.3,28.8,29.94,NE,36,6.0,13.0,74,0.00,OVC,,0.01,WeatherDisplay:10.37,2013-03-23 18:00:00,
2013-03-23 13:10:00,36.4,28.6,29.93,NE,34,7.0,15.0,73,0.00,OVC,,0.01,WeatherDisplay:10.37,2013-03-23 18:10:00,
2013-03-23 13:20:00,37.0,29.1,29.93,NNE,29,7.0,13.0,73,0.00,OVC,,0.01,WeatherDisplay:10.37,2013-03-23 18:20:00,
2013-03-23 13:25:00,37.3,28.7,29.93,NNE,22,10.0,14.0,71,0.00,OVC,,0.01,WeatherDisplay:10.37,2013-03-23 18:25:00,
2013-03-23 13:30:00,37.6,29.0,29.93,NNE,30,10.0,17.0,71,0.00,OVC,,0.01,WeatherDisplay:10.37,2013-03-23 18:30:00,
2013-03-23 13:35:00,37.9,29.0,29.93,NNE,27,6.0,16.0,70,0.00,OVC,,0.01,WeatherDisplay:10.37,2013-03-23 18:35:00,
2013-03-23 13:45:00,38.4,28.8,29.93,NNE,29,8.0,15.0,68,0.00,OVC,,0.01,WeatherDisplay:10.37,2013-03-23 18:45:00,
2013-03-23 13:55:00,38.0,28.4,29.93,NNE,33,7.0,13.0,68,0.00,OVC,,0.01,WeatherDisplay:10.37,2013-03-23 18:55:00,
2013-03-23 14:00:00,37.8,28.2,29.92,NNE,19,8.0,14.0,68,0.00,OVC,,0.01,WeatherDisplay:10.37,2013-03-23 19:00:00,
2013-03-23 14:05:00,37.7,28.1,29.93,NNE,21,8.0,17.0,68,0.00,OVC,,0.01,WeatherDisplay:10.37,2013-03-23 19:05:00,
2013-03-23 14:10:00,37.6,28.0,29.93,NNE,25,8.0,16.0,68,0.00,OVC,,0.01,WeatherDisplay:10.37,2013-03-23 19:10:00,
2013-03-23 14:15:00,37.6,28.0,29.93,NNE,18,3.0,13.0,68,0.00,OVC,,0.01,WeatherDisplay:10.37,2013-03-23 19:15:00,
2013-03-23 14:25:00,37.6,28.0,29.92,NNE,18,6.0,13.0,68,0.00,OVC,,0.01,WeatherDisplay:10.37,2013-03-23 19:25:00,
2013-03-23 14:35:00,37.6,28.0,29.91,NNE,18,7.0,10.0,68,0.00,OVC,,0.01,WeatherDisplay:10.37,2013-03-23 19:35:00,
2013-03-23 14:40:00,37.6,27.6,29.90,NNE,17,8.0,13.0,67,0.00,OVC,,0.01,WeatherDisplay:10.37,2013-03-23 19:40:00,
2013-03-23 14:45:00,37.7,27.7,29.90,NNE,26,8.0,17.0,67,0.00,OVC,,0.01,WeatherDisplay:10.37,2013-03-23 19:45:00,
2013-03-23 14:55:00,38.0,28.4,29.89,NNE,27,9.0,15.0,68,0.00,OVC,,0.01,WeatherDisplay:10.37,2013-03-23 19:55:00,
2013-03-23 15:00:00,38.1,27.7,29.89,NNE,27,10.0,18.0,66,0.00,OVC,,0.01,WeatherDisplay:10.37,2013-03-23 20:00:00,
2013-03-23 15:05:00,38.1,28.5,29.88,NNE,24,6.0,17.0,68,0.00,-SN,,0.01,WeatherDisplay:10.37,2013-03-23 20:05:00,
2013-03-23 15:10:00,38.3,28.7,29.88,NNE,20,6.0,13.0,68,0.00,-SN,,0.01,WeatherDisplay:10.37,2013-03-23 20:10:00,
2013-03-23 15:20:00,38.3,28.7,29.88,NNE,33,6.0,12.0,68,0.00,-SN,,0.01,WeatherDisplay:10.37,2013-03-23 20:20:00,
2013-03-23 15:25:00,38.1,28.5,29.89,NE,40,6.0,12.0,68,0.00,-SN,,0.01,WeatherDisplay:10.37,2013-03-23 20:25:00,
2013-03-23 15:30:00,38.1,28.5,29.89,NNE,33,5.0,13.0,68,0.00,-SN,,0.01,WeatherDisplay:10.37,2013-03-23 20:30:00,
2013-03-23 15:35:00,38.0,28.4,29.90,NNE,33,2.0,8.0,68,0.00,-SN,,0.01,WeatherDisplay:10.37,2013-03-23 20:35:00,
2013-03-23 15:45:00,37.7,28.8,29.91,NNE,22,7.0,12.0,70,0.00,OVC,,0.01,WeatherDisplay:10.37,2013-03-23 20:45:00,
2013-03-23 15:55:00,36.5,29.3,29.90,NNE,26,5.0,10.0,75,0.00,OVC,,0.01,WeatherDisplay:10.37,2013-03-23 20:55:00,
2013-03-23 16:00:00,35.7,29.6,29.90,NNE,22,5.0,10.0,78,0.00,OVC,,0.01,WeatherDisplay:10.37,2013-03-23 21:00:00,
2013-03-23 16:10:00,34.6,29.6,29.90,NNE,28,5.0,12.0,82,0.00,OVC,,0.01,WeatherDisplay:10.37,2013-03-23 21:10:00,
2013-03-23 16:20:00,33.6,29.6,29.90,NNE,31,1.0,9.0,85,0.00,CLR,,0.01,WeatherDisplay:10.37,2013-03-23 21:20:00,
2013-03-23 16:25:00,33.4,30.0,29.89,NNE,26,2.0,9.0,87,0.00,CLR,,0.01,WeatherDisplay:10.37,2013-03-23 21:25:00,
2013-03-23 16:30:00,33.3,30.1,29.89,NNE,21,3.0,7.0,88,0.00,CLR,,0.01,WeatherDisplay:10.37,2013-03-23 21:30:00,
2013-03-23 16:35:00,33.1,29.9,29.88,NNE,27,2.0,6.0,88,0.00,OVC,,0.01,WeatherDisplay:10.37,2013-03-23 21:35:00,
2013-03-23 16:40:00,33.1,30.5,29.88,NNE,32,3.0,8.0,90,0.00,OVC,,0.01,WeatherDisplay:10.37,2013-03-23 21:40:00,
2013-03-23 16:50:00,33.0,30.7,29.87,NNE,32,2.0,6.0,91,0.00,OVC,,0.01,WeatherDisplay:10.37,2013-03-23 21:50:00,
2013-03-23 16:55:00,33.0,30.7,29.87,NE,38,2.0,5.0,91,0.00, +SN,,0.01,WeatherDisplay:10.37,2013-03-23 21:55:00,
2013-03-23 17:00:00,33.0,30.9,29.87,NE,34,5.0,7.0,92,0.00, +SN,,0.01,WeatherDisplay:10.37,2013-03-23 22:00:00,
2013-03-23 17:05:00,33.0,30.9,29.87,NNE,25,3.0,8.0,92,0.00, +SN,,0.01,WeatherDisplay:10.37,2013-03-23 22:05:00,
2013-03-23 17:10:00,32.8,30.7,29.87,NNE,24,3.0,7.0,92,0.00, +SN,,0.01,WeatherDisplay:10.37,2013-03-23 22:10:00,
2013-03-23 17:15:00,32.8,30.7,29.87,NNE,30,3.0,7.0,92,0.00, +SN,,0.01,WeatherDisplay:10.37,2013-03-23 22:15:00,
2013-03-23 17:25:00,32.8,30.7,29.88,NE,34,1.0,5.0,92,0.00, +SN,,0.01,WeatherDisplay:10.37,2013-03-23 22:25:00,
2013-03-23 17:30:00,32.8,31.0,29.88,NE,35,3.0,6.0,93,0.00, +SN,,0.01,WeatherDisplay:10.37,2013-03-23 22:30:00,
2013-03-23 17:40:00,32.8,31.3,29.87,NE,36,3.0,6.0,94,0.00, +SN,,0.01,WeatherDisplay:10.37,2013-03-23 22:40:00,
2013-03-23 17:50:00,32.6,30.8,29.88,NE,41,2.0,5.0,93,0.00,CLR,,0.01,WeatherDisplay:10.37,2013-03-23 22:50:00,
2013-03-23 18:00:00,32.6,31.1,29.89,NE,34,1.0,5.0,94,0.00,CLR,,0.01,WeatherDisplay:10.37,2013-03-23 23:00:00,
2013-03-23 18:05:00,32.6,31.1,29.88,NE,34,1.0,5.0,94,0.00,-SN,,0.01,WeatherDisplay:10.37,2013-03-23 23:05:00,
2013-03-23 18:10:00,32.6,31.1,29.88,NNE,33,2.0,5.0,94,0.00,-SN,,0.01,WeatherDisplay:10.37,2013-03-23 23:10:00,
2013-03-23 18:15:00,32.6,31.1,29.88,NNE,33,2.0,5.0,94,0.00,-SN,,0.01,WeatherDisplay:10.37,2013-03-23 23:15:00,
2013-03-23 18:20:00,32.6,31.1,29.88,NNE,33,2.0,4.0,94,0.00,-SN,,0.01,WeatherDisplay:10.37,2013-03-23 23:20:00,
2013-03-23 18:30:00,32.6,31.3,29.88,NE,39,0.0,3.0,95,0.00,-SN,,0.01,WeatherDisplay:10.37,2013-03-23 23:30:00,
2013-03-23 18:40:00,32.6,31.3,29.88,NE,42,0.0,0.0,95,0.00,OVC,,0.01,WeatherDisplay:10.37,2013-03-23 23:40:00,
2013-03-23 18:50:00,32.5,31.2,29.87,NE,42,0.0,0.0,95,0.00,OVC,,0.01,WeatherDisplay:10.37,2013-03-23 23:50:00,
2013-03-23 18:55:00,32.5,31.2,29.87,NE,41,0.0,0.0,95,0.00,OVC,,0.01,WeatherDisplay:10.37,2013-03-23 23:55:00,
2013-03-23 19:00:00,32.5,31.2,29.87,NE,40,0.0,0.0,95,0.00,OVC,,0.01,WeatherDisplay:10.37,2013-03-24 00:00:00,
2013-03-23 19:10:00,32.5,31.2,29.87,NE,40,0.0,0.0,95,0.00,OVC,,0.01,WeatherDisplay:10.37,2013-03-24 00:10:00,
2013-03-23 19:15:00,32.5,31.2,29.86,NE,40,1.0,4.0,95,0.00,-SN,,0.01,WeatherDisplay:10.37,2013-03-24 00:15:00,
2013-03-23 19:20:00,32.5,31.2,29.88,NE,40,2.0,5.0,95,0.00,-SN,,0.01,WeatherDisplay:10.37,2013-03-24 00:20:00,
2013-03-23 19:30:00,32.5,31.2,29.87,NE,41,2.0,7.0,95,0.00,-SN,,0.01,WeatherDisplay:10.37,2013-03-24 00:30:00,
2013-03-23 19:40:00,32.5,31.2,29.88,NNE,22,2.0,5.0,95,0.00,-SN,,0.01,WeatherDisplay:10.37,2013-03-24 00:40:00,
2013-03-23 19:50:00,32.5,31.2,29.89,North,355,2.0,3.0,95,0.00,-SN,,0.01,WeatherDisplay:10.37,2013-03-24 00:50:00,
2013-03-23 19:55:00,32.5,31.5,29.89,North,358,2.0,6.0,96,0.00,-SN,,0.01,WeatherDisplay:10.37,2013-03-24 00:55:00,
2013-03-23 20:00:00,32.5,31.2,29.89,North,11,2.0,7.0,95,0.00,-SN,,0.01,WeatherDisplay:10.37,2013-03-24 01:00:00,
2013-03-23 20:05:00,32.5,31.5,29.89,NNE,22,3.0,6.0,96,0.00,-SN,,0.01,WeatherDisplay:10.37,2013-03-24 01:05:00,
2013-03-23 20:10:00,32.5,31.5,29.89,NNE,13,2.0,6.0,96,0.00,-SN,,0.01,WeatherDisplay:10.37,2013-03-24 01:10:00,
2013-03-23 20:15:00,32.5,31.5,29.89,North,6,2.0,5.0,96,0.00,-SN,,0.01,WeatherDisplay:10.37,2013-03-24 01:15:00,
2013-03-23 20:20:00,32.5,31.5,29.89,North,11,3.0,6.0,96,0.00,-SN,,0.01,WeatherDisplay:10.37,2013-03-24 01:20:00,
2013-03-23 20:30:00,32.5,31.5,29.90,NNE,28,2.0,5.0,96,0.00,-SN,,0.01,WeatherDisplay:10.37,2013-03-24 01:30:00,
2013-03-23 20:35:00,32.5,31.5,29.90,NNE,22,3.0,5.0,96,0.00,-SN,,0.01,WeatherDisplay:10.37,2013-03-24 01:35:00,
2013-03-23 20:40:00,32.5,31.5,29.90,NNE,17,1.0,5.0,96,0.01,-SN,,0.02,WeatherDisplay:10.37,2013-03-24 01:40:00,
2013-03-23 20:45:00,32.5,31.5,29.90,NNE,23,3.0,5.0,96,0.00,-SN,,0.02,WeatherDisplay:10.37,2013-03-24 01:45:00,
2013-03-23 20:50:00,32.3,31.3,29.90,NNE,29,2.0,5.0,96,0.00,-SN,,0.02,WeatherDisplay:10.37,2013-03-24 01:50:00,
2013-03-23 21:00:00,32.3,31.5,29.91,NNE,31,1.0,4.0,97,0.00,-SN,,0.02,WeatherDisplay:10.37,2013-03-24 02:00:00,
2013-03-23 21:05:00,32.3,31.3,29.90,NNE,31,1.0,4.0,96,0.00,-SN,,0.02,WeatherDisplay:10.37,2013-03-24 02:05:00,
2013-03-23 21:10:00,32.3,31.0,29.91,NNE,32,2.0,5.0,95,0.00,-SN,,0.02,WeatherDisplay:10.37,2013-03-24 02:10:00,
2013-03-23 21:15:00,32.3,31.3,29.91,NNE,32,1.0,3.0,96,0.00,-SN,,0.02,WeatherDisplay:10.37,2013-03-24 02:15:00,
2013-03-23 21:20:00,32.3,31.3,29.91,NNE,32,1.0,4.0,96,0.00,-SN,,0.02,WeatherDisplay:10.37,2013-03-24 02:20:00,
2013-03-23 21:25:00,32.3,31.0,29.91,NNE,32,1.0,3.0,95,0.00,-SN,,0.02,WeatherDisplay:10.37,2013-03-24 02:25:00,
2013-03-23 21:30:00,32.3,31.0,29.91,NNE,32,0.0,3.0,95,0.00,-SN,,0.02,WeatherDisplay:10.37,2013-03-24 02:30:00,
2013-03-23 21:35:00,32.3,31.3,29.91,NNE,32,0.0,0.0,96,0.00,-SN,,0.02,WeatherDisplay:10.37,2013-03-24 02:35:00,
2013-03-23 21:40:00,32.3,31.3,29.91,NNE,32,0.0,0.0,96,0.00,-SN,,0.02,WeatherDisplay:10.37,2013-03-24 02:40:00,
2013-03-23 21:50:00,32.3,31.5,29.92,NNE,32,0.0,0.0,97,0.00,-SN,,0.02,WeatherDisplay:10.37,2013-03-24 02:50:00,
2013-03-23 21:55:00,32.3,31.3,29.92,NNE,32,0.0,0.0,96,0.00,-SN,,0.02,WeatherDisplay:10.37,2013-03-24 02:55:00,
2013-03-23 22:00:00,32.3,31.3,29.92,NNE,32,0.0,0.0,96,0.00,-SN,,0.02,WeatherDisplay:10.37,2013-03-24 03:00:00,
2013-03-23 22:05:00,32.3,31.3,29.92,NNE,32,0.0,0.0,96,0.00,-SN,,0.02,WeatherDisplay:10.37,2013-03-24 03:05:00,
2013-03-23 22:15:00,32.3,31.3,29.91,NNE,32,0.0,1.0,96,0.00,-SN,,0.02,WeatherDisplay:10.37,2013-03-24 03:15:00,
2013-03-23 22:20:00,32.3,31.6,29.91,NNE,32,0.0,0.0,97,0.00,-SN,,0.02,WeatherDisplay:10.37,2013-03-24 03:20:00,
2013-03-23 22:25:00,32.3,31.5,29.90,NNE,32,0.0,0.0,97,0.00,-SN,,0.02,WeatherDisplay:10.37,2013-03-24 03:25:00,
2013-03-23 22:30:00,32.3,31.3,29.90,NNE,32,0.0,0.0,96,0.00,-SN,,0.02,WeatherDisplay:10.37,2013-03-24 03:30:00,
2013-03-23 22:35:00,32.3,31.3,29.90,NNE,32,0.0,0.0,96,0.00,-SN,,0.02,WeatherDisplay:10.37,2013-03-24 03:35:00,
2013-03-23 22:40:00,32.3,31.6,29.90,NNE,33,0.0,0.0,97,0.00,-SN,,0.02,WeatherDisplay:10.37,2013-03-24 03:40:00,
2013-03-23 22:50:00,32.3,31.5,29.89,NNE,33,0.0,0.0,97,0.00,-SN,,0.02,WeatherDisplay:10.37,2013-03-24 03:50:00,
2013-03-23 22:55:00,32.3,31.5,29.88,NNE,33,0.0,0.0,97,0.00,-SN,,0.02,WeatherDisplay:10.37,2013-03-24 03:55:00,
2013-03-23 23:00:00,32.2,31.4,29.88,NNE,32,0.0,0.0,97,0.00,-SN,,0.02,WeatherDisplay:10.37,2013-03-24 04:00:00,
2013-03-23 23:05:00,32.2,31.4,29.87,NE,37,0.0,0.0,97,0.00,-SN,,0.02,WeatherDisplay:10.37,2013-03-24 04:05:00,
2013-03-23 23:10:00,32.2,31.2,29.85,NE,36,0.0,0.0,96,0.01,-SN,,0.03,WeatherDisplay:10.37,2013-03-24 04:10:00,
2013-03-23 23:15:00,32.2,31.2,29.84,NNE,21,2.0,5.0,96,0.00,-SN,,0.03,WeatherDisplay:10.37,2013-03-24 04:15:00,
2013-03-23 23:20:00,32.0,31.3,29.84,NE,38,3.0,8.0,97,0.00,-SN,,0.03,WeatherDisplay:10.37,2013-03-24 04:20:00,
2013-03-23 23:30:00,32.0,31.2,29.85,NNE,27,1.0,5.0,97,0.00,-SN,,0.03,WeatherDisplay:10.37,2013-03-24 04:30:00,
2013-03-23 23:35:00,32.0,31.0,29.85,NNE,29,2.0,7.0,96,0.00,-SN,,0.03,WeatherDisplay:10.37,2013-03-24 04:35:00,
2013-03-23 23:45:00,32.0,31.3,29.85,NNE,27,3.0,10.0,97,0.00,-SN,,0.03,WeatherDisplay:10.37,2013-03-24 04:45:00,
2013-03-23 23:50:00,32.0,31.2,29.84,NNE,32,2.0,8.0,97,0.00,-SN,,0.03,WeatherDisplay:10.37,2013-03-24 04:50:00,